(120347) Salacia
ephemeris date magn radius delta ra dec elong phase
Today19 Apr 202520.945.286 AU46.159 AU00h00m+25°42'29.2°0.6°
Opposition3 Oct 202520.845.315 AU44.402 AU23h58m+26°40'155.5°0.5°
(120347) Salacia - 2025-04-19
astro.vanbuitenen.nl


 
-1 year
-1 month
-1 day
Now
+1 day
+1 month
+1 year

The interactive orbit chart above shows the body's path through the solar system and its position at the given date. Green and blue lines are shown perpendicular to the ecliptic plane: Green if the path is above the ecliptic plane, blue if it is below. (Left-click and drag to rotate the view; Right-click and drag to move the view; Use scroll wheel to zoom in our out.)

The orbital elements of Salacia are:

            e (Eccentricity)                : 0.1023398
            a (Semimajor axis)              : 42.1753636
            i (Inclination)                 : 23.92716
            Ω (Longitude of ascending node) : 280.25305
            ω (Argument of perihelion)      : 310.11627
            M (Mean anomaly)                : 132.09397
            Epoch                           : 2025 May 05

            L (Longitude of perihelion)     : 232.92228
            B (Latitude of perihelion)      : -18.06880
            P (Orbital period in years)     : 273.90            
        

The light curve chart below shows the estimated development of the minor planet's magnitude.


The all-sky chart below shows the path of the minor planet over the same period as the light curve. The current position is marked yellow.





The following chart shows the path of the minor planet in the next few days. The field of view is optimized for (~10x50) binoculars and finderscopes. A more printer-friendly version of the same chart can be found below.




Ephemerides:
Date       Time       RA (2000)    DEC (2000)    delta   radius  elong  phase   PA    magn
2025-04-19 00:00 UT   00 00 01.2   +25 42 13    46.159   45.286   29.2    0.6   295   20.9 
2025-04-19 20:48 UT   00 00 05.8   +25 42 52    46.155   45.286   29.7    0.6   294   20.9 
2025-04-20 00:00 UT   00 00 06.5   +25 42 58    46.155   45.286   29.8    0.6   294   20.9 
2025-04-21 00:00 UT   00 00 11.8   +25 43 43    46.150   45.286   30.4    0.6   292   20.9 
2025-04-22 00:00 UT   00 00 17.0   +25 44 28    46.145   45.286   31.0    0.7   291   20.9 
2025-04-23 00:00 UT   00 00 22.1   +25 45 13    46.139   45.286   31.6    0.7   289   20.9 
2025-04-24 00:00 UT   00 00 27.3   +25 45 59    46.134   45.286   32.2    0.7   288   20.9 
2025-04-25 00:00 UT   00 00 32.4   +25 46 45    46.128   45.287   32.9    0.7   287   20.9 
2025-04-26 00:00 UT   00 00 37.4   +25 47 31    46.122   45.287   33.5    0.7   285   20.9 
2025-04-27 00:00 UT   00 00 42.4   +25 48 17    46.116   45.287   34.2    0.7   284   20.9 
2025-04-28 00:00 UT   00 00 47.3   +25 49 03    46.109   45.287   34.9    0.7   283   20.9 
2025-04-29 00:00 UT   00 00 52.2   +25 49 50    46.103   45.287   35.6    0.7   282   20.9 
2025-04-30 00:00 UT   00 00 57.0   +25 50 37    46.096   45.287   36.2    0.8   281   20.9 
2025-05-01 00:00 UT   00 01 01.8   +25 51 24    46.089   45.288   37.0    0.8   280   20.9 
2025-05-02 00:00 UT   00 01 06.5   +25 52 11    46.081   45.288   37.7    0.8   279   20.9 
2025-05-03 00:00 UT   00 01 11.2   +25 52 58    46.074   45.288   38.4    0.8   278   20.9 
2025-05-04 00:00 UT   00 01 15.8   +25 53 45    46.066   45.288   39.1    0.8   277   20.9 
2025-05-05 00:00 UT   00 01 20.3   +25 54 32    46.058   45.288   39.9    0.8   276   20.9 
2025-05-06 00:00 UT   00 01 24.8   +25 55 20    46.049   45.289   40.6    0.8   275   20.9 
2025-05-07 00:00 UT   00 01 29.3   +25 56 07    46.041   45.289   41.4    0.8   274   20.9 
2025-05-08 00:00 UT   00 01 33.6   +25 56 55    46.032   45.289   42.1    0.9   273   20.9 
2025-05-09 00:00 UT   00 01 37.9   +25 57 42    46.023   45.289   42.9    0.9   272   20.9 
2025-05-10 00:00 UT   00 01 42.2   +25 58 30    46.014   45.289   43.7    0.9   271   20.9 
2025-05-11 00:00 UT   00 01 46.4   +25 59 18    46.005   45.289   44.4    0.9   271   20.9 
2025-05-12 00:00 UT   00 01 50.5   +26 00 05    45.995   45.290   45.2    0.9   270   20.9 
2025-05-13 00:00 UT   00 01 54.5   +26 00 53    45.986   45.290   46.0    0.9   269   20.9 
2025-05-14 00:00 UT   00 01 58.5   +26 01 41    45.976   45.290   46.8    0.9   268   20.9 
2025-05-15 00:00 UT   00 02 02.4   +26 02 28    45.966   45.290   47.6    0.9   268   20.9 
2025-05-16 00:00 UT   00 02 06.3   +26 03 16    45.955   45.290   48.4    1.0   267   20.9 
2025-05-17 00:00 UT   00 02 10.0   +26 04 04    45.945   45.290   49.2    1.0   266   20.9 
2025-05-18 00:00 UT   00 02 13.8   +26 04 51    45.934   45.291   50.0    1.0   266   20.9 
2025-05-19 00:00 UT   00 02 17.4   +26 05 39    45.923   45.291   50.8    1.0   265   20.9 


    Terminology:
            
    delta:  distance between minor planet and earth in AU
    radius: distance between minor planet and sun in AU
    magn:   magnitude (brightness) estimate    
    ra:     right ascension in hours (24h = 360deg)
    dec:    declination in degrees
    elong:  elongation in degrees (angle sun-earth-minor planet)    
    phase:  phase angle in degrees (angle sun-minor planet-earth)        
    AU:     Astronomical Unit (mean distance between earth and sun: 149597870.7 km
    

Orbital elements provided by the MPC (Minor Planet Center).
Calculations by a modified version of AAPlus, a C# implementation of the AA+ project by PJ Naughter from the algorithms presented in the book "Astronomical Algorithms" by Jean Meeus.
NGC2000 dso catalog and star labels from VizieR as provided by the Strasbourg astronomical Data Center.
Tycho2 catalog from the ESO archive.